La Ceiba, Honduras

8:22 PM CST on April 28, 2017 (GMT -0600)
Goloson International

Weather History for MHLC - October, 2012

Change the Weather History Date:

Wednesday, October 17, 2012

  Actual Average Record
Temperature  
Mean Temperature 79 °F -  
Max Temperature 89 °F 82 °F 89 °F (2006)
Min Temperature 69 °F 69 °F 66 °F (2002)
Cooling Degree Days 14    
Growing Degree Days 29 (Base 50)    
Moisture  
Dew Point 71 °F    
Average Humidity 70    
Maximum Humidity 89    
Minimum Humidity 49    
Precipitation  
Precipitation 0.00 in 0.64 in - ()
Sea Level Pressure  
Sea Level Pressure 29.83 in    
Wind  
Wind Speed 3 mph ()    
Max Wind Speed 7 mph    
Max Gust Speed -    
Visibility 7.4 miles    
Events      
Averages and records for this station are not official NWS values.
T = Trace of Precipitation, MM = Missing Value Source: Averaged Metar Reports

Daily Weather History Graph

Daily Weather History Graph

Search for Another Location

Airport or City:

Trip Planner

Search our weather history database for the weather conditions in past years. The results will help you decide how hot, cold, wet, or windy it might be!

Date:

Astronomy

Oct. 17, 2012 Rise Set
Actual Time 5:40 AM CST 5:25 PM CST
Civil Twilight 5:18 AM CST 5:46 PM CST
Nautical Twilight 4:53 AM CST 6:12 PM CST
Astronomical Twilight 4:28 AM CST 6:37 PM CST
Moon 7:47 AM CST (10/17) 7:29 PM CST (10/17)
Length of Visible Light 12h 28m
Length of Day
11h 45m
Waxing Crescent, 7% of the Moon is Illuminated
Oct 17
Waxing Crescent
Oct 21
First Quarter
Oct 29
Full
Nov 6
Last Quarter
Nov 13
New

Hourly Weather History & Observations

Time (CST) Temp. Heat Index Dew Point Humidity Pressure Visibility Wind Dir Wind Speed Gust Speed Precip Events Conditions
12:00 AM 77.0 °F - 62.6 °F 61% 29.83 in 6.2 mi South 6.9 mph - N/A   Mostly Cloudy
6:00 AM 72 °F - 68 °F 84% 29.84 in 12 mi Calm Calm - -   Haze
6:00 AM 71.6 °F - 68.0 °F 88% 29.83 in 6.2 mi Calm Calm - N/A   Mostly Cloudy
7:00 AM 75.2 °F - 69.8 °F 83% 29.86 in 6.2 mi Calm Calm - N/A   Scattered Clouds
8:00 AM 84.2 °F 89.6 °F 71.6 °F 66% 29.86 in 6.2 mi Calm Calm - N/A   Scattered Clouds
9:00 AM 85 °F - 70 °F 52% 29.89 in 12 mi WSW 4.6 mph - -   Haze
9:00 AM 86.0 °F 90.4 °F 69.8 °F 58% 29.89 in 6.2 mi WSW 4.6 mph - N/A   Scattered Clouds
10:00 AM 87.8 °F 92.6 °F 69.8 °F 55% 29.89 in 6.2 mi Variable 2.3 mph - N/A   Scattered Clouds
11:00 AM 87.8 °F 93.8 °F 71.6 °F 58% 29.86 in 6.2 mi NNW 6.9 mph - N/A   Scattered Clouds
12:00 PM 88 °F - 71 °F 49% 29.84 in 12 mi NNW 4.6 mph - -   Haze
12:00 PM 87.8 °F 93.8 °F 71.6 °F 58% 29.83 in 6.2 mi NNW 4.6 mph - N/A   Scattered Clouds
1:00 PM 87.8 °F 93.8 °F 71.6 °F 58% 29.80 in 6.2 mi WNW 4.6 mph - N/A   Scattered Clouds
2:00 PM 87.8 °F 95.6 °F 73.4 °F 62% 29.80 in 6.2 mi NNW 4.6 mph - N/A   Partly Cloudy
3:00 PM 87 °F - 72 °F 52% 29.79 in 10 mi NNW 6.9 mph - -   Haze
3:00 PM 87.8 °F 93.8 °F 71.6 °F 58% 29.77 in 6.2 mi NNW 6.9 mph - N/A   Partly Cloudy
4:00 PM 86.0 °F 93.4 °F 73.4 °F 66% 29.77 in 6.2 mi NNE 4.6 mph - N/A   Partly Cloudy
5:00 PM 84.2 °F 92.3 °F 75.2 °F 74% 29.77 in 6.2 mi East 2.3 mph - N/A   Partly Cloudy
6:00 PM 82 °F - 75 °F 73% 29.81 in 10 mi East 3.5 mph - -   Haze
6:00 PM 82.4 °F 89.5 °F 75.2 °F 79% 29.80 in 6.2 mi East 3.5 mph - N/A   Scattered Clouds
7:00 PM 78.8 °F - 73.4 °F 83% 29.80 in 6.2 mi ESE 3.5 mph - N/A   Scattered Clouds
8:00 PM 77.0 °F - 71.6 °F 83% 29.83 in 6.2 mi Calm Calm - N/A   Scattered Clouds
9:00 PM 76 °F - 71 °F 80% 29.85 in 10 mi WSW 2.3 mph - -   Haze
9:00 PM 75.2 °F - 71.6 °F 89% 29.83 in 6.2 mi WSW 2.3 mph - N/A   Partly Cloudy
10:00 PM 73.4 °F - 69.8 °F 88% 29.83 in 6.2 mi SE 5.8 mph - N/A   Partly Cloudy
11:00 PM 73.4 °F - 69.8 °F 88% 29.83 in 6.2 mi SE 2.3 mph - N/A   Partly Cloudy